"2010-12-22 00:00:00",443821,2.932,45.22,4.93,1.094,0.386,99.39464,-2.243,-1.328,75.76,0,109.4,13.64,-1.50,7.2
"2010-12-22 00:00:30",443822,3.506,43.85,6.607,1.178,2.574,99.3997,-2.23,-1.144,75.92,0,109.4,13.63,-1.49,5.8
"2010-12-22 00:01:00",443823,3.332,42.11,5.488,1.128,2.594,99.39548,-2.24,-1.144,75.94,0,109.4,13.63,-1.50,4.1
"2010-12-22 00:01:30",443824,2.75,39.6,6.776,1.262,1.669,99.40055,-2.227,-1.207,75.89,0,109.4,13.63,-1.48,1.6
"2010-12-22 00:02:00",443825,3.495,42.44,6.154,1.116,2.268,99.40252,-2.222,-1.139,75.94,0,109.4,13.64,-1.48,4.4
"2010-12-22 00:02:30",443826,3.484,41.8,5.513,1.116,2.398,99.40196,-2.224,-1.15,75.88,0,109.4,13.64,-1.48,3.8
"2010-12-22 00:03:00",443827,1.563,30.2,3.253,0.462,-0.943,99.4014,-2.225,-1.359,75.67,0,109.4,13.64,-1.48,352.2
"2010-12-22 00:03:30",443828,2.715,36.23,6.809,1.245,1.329,99.40421,-2.218,-1.15,75.87,0,109.4,13.64,-1.47,358.2
"2010-12-22 00:04:00",443829,3.122,40.31,6.115,1.204,2.389,99.40562,-2.215,-1.104,75.83,0,109.4,13.64,-1.47,2.3
"2010-12-22 00:04:30",443830,2.979,38.77,5.727,1.126,1.193,99.40703,-2.211,-1.184,75.76,0,109.4,13.64,-1.47,0.8
"2010-12-22 00:05:00",443831,3.208,39.02,6.345,1.206,1.804,99.40984,-2.204,-1.116,75.79,0,109.4,13.64,-1.46,1.0
"2010-12-22 00:05:30",443832,3.371,38.73,5.694,1.145,1.968,99.40535,-2.215,-1.17,75.72,0,109.4,13.65,-1.47,0.7
"2010-12-22 00:06:00",443833,2.726,34.43,5.003,1.065,0.392,99.40732,-2.21,-1.218,75.63,0,109.4,13.65,-1.47,356.4
"2010-12-22 00:06:30",443834,3.179,37.64,6.577,1.188,1.729,99.40759,-2.209,-1.123,75.77,0,109.4,13.65,-1.47,359.6
"2010-12-22 00:07:00",443835,3.953,39.56,5.923,1.134,2.77,99.40929,-2.205,-1.1,75.76,0,109.4,13.65,-1.46,1.6
"2010-12-22 00:07:30",443836,2.718,34.3,5.485,1.079,0.841,99.40901,-2.206,-1.174,75.68,0,109.4,13.65,-1.46,356.3
"2010-12-22 00:08:00",443837,3.86,39.57,5.372,1.052,2.626,99.409,-2.206,-1.132,75.71,0,109.4,13.65,-1.46,1.6
"2010-12-22 00:08:30",443838,3.647,38.87,6.578,1.177,1.675,99.40816,-2.208,-1.139,75.67,0,109.4,13.65,-1.46,0.9
"2010-12-22 00:09:00",443839,3.022,35.86,5.746,1.208,0.398,99.40844,-2.207,-1.192,75.58,0,109.4,13.65,-1.46,357.9
"2010-12-22 00:09:30",443840,4.33,43.88,5.725,1.16,2.605,99.40929,-2.205,-1.143,75.59,0,109.4,13.65,-1.46,5.9
"2010-12-22 00:10:00",443841,4.12,43,6.082,1.136,2.48,99.40788,-2.209,-1.138,75.53,0,109.4,13.65,-1.46,5.0
"2010-12-22 00:10:30",443842,3.233,39.47,5.963,1.17,1.059,99.40929,-2.205,-1.217,75.46,0,109.4,13.65,-1.46,1.5
"2010-12-22 00:11:00",443843,3.941,46.46,5.773,1.18,2.036,99.40844,-2.207,-1.123,75.57,0,109.4,13.65,-1.46,8.5
"2010-12-22 00:11:30",443844,3.909,43.46,5.935,1.096,2.378,99.40788,-2.209,-1.188,75.5,0,109.4,13.65,-1.46,5.5
"2010-12-22 00:12:00",443845,3.521,40.21,6.294,1.197,1.499,99.40844,-2.207,-1.287,75.4,0,109.4,13.65,-1.46,2.2
"2010-12-22 00:12:30",443846,3.324,40.28,6.678,1.273,2.186,99.40788,-2.209,-1.122,75.56,0,109.4,13.65,-1.46,2.3
"2010-12-22 00:13:00",443847,3.762,40.83,5.519,1.085,2.638,99.41041,-2.202,-1.194,75.48,0,109.4,13.65,-1.46,2.8
"2010-12-22 00:13:30",443848,2.89,35.08,7.612,1.341,0.711,99.4076,-2.209,-1.269,75.41,0,109.4,13.65,-1.47,357.1
"2010-12-22 00:14:00",443849,3.122,35.43,6.512,1.247,1.752,99.40844,-2.207,-1.152,75.56,0,109.5,13.64,-1.46,357.4
"2010-12-22 00:14:30",443850,2.169,29.18,5.704,1,-0.082,99.41041,-2.202,-1.21,75.48,0,109.4,13.64,-1.46,351.2
"2010-12-22 00:15:00",443851,3.084,32.53,5.878,1.283,1.875,99.41013,-2.203,-1.155,75.51,0,109.4,13.64,-1.46,354.5
"2010-12-22 00:15:30",443852,3,34.36,6.496,1.108,1.905,99.40984,-2.204,-1.16,75.53,0,109.4,13.64,-1.46,356.4
"2010-12-22 00:16:00",443853,2.863,35.32,5.578,1.23,1.505,99.41041,-2.202,-1.159,75.52,0,109.4,13.64,-1.46,357.3
"2010-12-22 00:16:30",443854,3.348,37.47,6.472,1.262,1.668,99.40984,-2.204,-1.186,75.47,0,109.4,13.64,-1.46,359.5
"2010-12-22 00:17:00",443855,3.171,38.95,6.568,1.188,1.009,99.41238,-2.197,-1.208,75.4,0,109.4,13.64,-1.45,1.0
"2010-12-22 00:17:30",443856,3.791,42.92,6.646,1.246,1.831,99.41323,-2.195,-1.117,75.48,0,109.4,13.64,-1.45,4.9
"2010-12-22 00:18:00",443857,4.382,45.85,5.969,0.987,2.851,99.41098,-2.201,-1.111,75.5,0,109.4,13.64,-1.46,7.8
"2010-12-22 00:18:30",443858,4.149,48.49,5.215,1.122,2.686,99.41013,-2.203,-1.137,75.44,0,109.4,13.64,-1.46,10.5
"2010-12-22 00:19:00",443859,3.741,45.4,6.19,1.215,1.602,99.4121,-2.198,-1.112,75.48,0,109.4,13.65,-1.45,7.4
"2010-12-22 00:19:30",443860,2.831,42,4.797,1.009,0.208,99.41042,-2.202,-1.178,75.38,0,109.4,13.65,-1.46,4.0
"2010-12-22 00:20:00",443861,3.968,50.24,5.312,1.1,2.697,99.41183,-2.199,-1.224,75.33,0,109.4,13.65,-1.45,12.2
"2010-12-22 00:20:30",443862,3.288,44.11,5.343,1.241,1.048,99.41238,-2.197,-1.239,75.36,0,109.4,13.65,-1.45,6.1
"2010-12-22 00:21:00",443863,4.37,47.35,5.635,0.996,2.827,99.41295,-2.196,-1.099,75.45,0,109.4,13.65,-1.45,9.3
"2010-12-22 00:21:30",443864,4.114,45.61,5.91,1.071,2.949,99.41267,-2.197,-1.167,75.37,0,109.4,13.65,-1.45,7.6
"2010-12-22 00:22:00",443865,4.145,46.45,5.439,1.037,2.895,99.41238,-2.197,-1.146,75.39,0,109.4,13.65,-1.45,8.5
"2010-12-22 00:22:30",443866,3.474,46.16,6.624,1.218,1.802,99.41295,-2.196,-1.11,75.42,0,109.4,13.65,-1.45,8.2
"2010-12-22 00:23:00",443867,3.314,44.67,5.316,1.161,0.122,99.41351,-2.194,-1.288,75.25,0,109.4,13.65,-1.45,6.7
"2010-12-22 00:23:30",443868,3.771,48.9,6.566,1.195,1.621,99.41351,-2.194,-1.188,75.33,0,109.4,13.65,-1.45,10.9
"2010-12-22 00:24:00",443869,4.357,50.75,5.506,0.948,2.941,99.41351,-2.194,-1.081,75.42,0,109.4,13.66,-1.45,12.8
"2010-12-22 00:24:30",443870,4.19,49.03,6.117,1.126,2.465,99.41407,-2.193,-1.145,75.33,0,109.4,13.65,-1.45,11.0
"2010-12-22 00:25:00",443871,4.164,48.45,5.877,1.178,2.437,99.41464,-2.192,-1.111,75.35,0,109.4,13.65,-1.45,10.5
"2010-12-22 00:25:30",443872,3.587,43.88,5.599,1.138,0.759,99.41492,-2.191,-1.198,75.19,0,109.4,13.65,-1.45,5.9
"2010-12-22 00:26:00",443873,3.407,44.2,5.958,1.061,1.024,99.41464,-2.192,-1.131,75.2,0,109.4,13.65,-1.45,6.2
"2010-12-22 00:26:30",443874,4.586,50.2,6.201,1.122,2.508,99.41689,-2.186,-1.101,75.15,0,109.4,13.65,-1.44,12.2
"2010-12-22 00:27:00",443875,4.792,52.2,5.488,1.093,2.883,99.41548,-2.189,-1.072,75.17,0,109.4,13.66,-1.45,14.2
"2010-12-22 00:27:30",443876,4.918,54.39,4.716,0.99,3.735,99.41548,-2.189,-1.085,75.18,0,109.4,13.66,-1.45,16.4
"2010-12-22 00:28:00",443877,4.365,54.24,5.861,1.181,2.333,99.41717,-2.185,-1.124,75.04,0,109.4,13.65,-1.44,16.2
"2010-12-22 00:28:30",443878,4.538,58.42,5.342,1.14,3.027,99.41717,-2.185,-1.104,74.88,0,109.4,13.65,-1.44,20.4
"2010-12-22 00:29:00",443879,4.779,58.38,5.734,1.058,2.566,99.41773,-2.184,-1.147,74.79,0,109.4,13.65,-1.44,20.4
"2010-12-22 00:29:30",443880,4.49,56.82,5.744,1.195,2.424,99.41661,-2.187,-1.098,74.83,0,109.4,13.65,-1.44,18.8
"2010-12-22 00:30:00",443881,4.341,55.48,5.66,1.182,2.543,99.41605,-2.188,-1.105,74.86,0,109.4,13.65,-1.44,17.5
"2010-12-22 00:30:30",443882,4.65,54.84,5.467,1.031,2.997,99.41689,-2.186,-1.174,74.85,0,109.4,13.65,-1.44,16.8
"2010-12-22 00:31:00",443883,4.172,52.61,6.243,1.214,2.414,99.41689,-2.186,-1.086,75,0,109.4,13.65,-1.44,14.6
"2010-12-22 00:31:30",443884,3.684,50.27,6.183,1.109,1.33,99.41661,-2.187,-1.111,75.07,0,109.4,13.65,-1.44,12.3
"2010-12-22 00:32:00",443885,4.686,57.35,5.605,1.032,2.591,99.41801,-2.183,-1.09,75.11,0,109.4,13.65,-1.44,19.3
"2010-12-22 00:32:30",443886,4.413,57.18,5.768,1.161,2.283,99.41746,-2.184,-1.144,75.02,0,109.4,13.65,-1.44,19.2
"2010-12-22 00:33:00",443887,4.315,57.39,5.814,1.124,2.576,99.41689,-2.186,-1.137,75.07,0,109.4,13.65,-1.44,19.4
"2010-12-22 00:33:30",443888,3.902,55.43,6.429,1.149,2.333,99.41887,-2.181,-1.072,75.12,0,109.4,13.65,-1.44,17.4
"2010-12-22 00:34:00",443889,3.727,53.88,6.091,1.214,1.718,99.42226,-2.172,-1.185,75,0,109.4,13.65,-1.43,15.9
"2010-12-22 00:34:30",443890,3.216,50.47,4.997,1.113,0.771,99.42199,-2.173,-1.085,75.11,0,109.4,13.65,-1.43,12.5
"2010-12-22 00:35:00",443891,3.929,53.69,6.12,1.194,2.305,99.42142,-2.174,-1.079,75.11,0,109.4,13.65,-1.43,15.7
"2010-12-22 00:35:30",443892,4.462,54.96,5.209,1.106,3.099,99.42199,-2.173,-1.064,75.23,0,109.4,13.65,-1.43,17.0
"2010-12-22 00:36:00",443893,4.181,50.84,6.364,1.167,2.457,99.42594,-2.163,-1.089,75.29,0,109.4,13.65,-1.42,12.8
"2010-12-22 00:36:30",443894,4.588,52.38,5.023,1.02,3.304,99.4251,-2.165,-1.07,75.36,0,109.4,13.65,-1.42,14.4
"2010-12-22 00:37:00",443895,4.268,50.21,5.656,1.142,2.556,99.42595,-2.163,-1.164,75.22,0,109.4,13.66,-1.42,12.2
"2010-12-22 00:37:30",443896,4.164,50.61,6.219,1.189,2.209,99.42793,-2.158,-1.122,75.27,0,109.4,13.65,-1.41,12.6
"2010-12-22 00:38:00",443897,4.32,52.17,5.739,1.115,2.779,99.42426,-2.167,-1.049,75.36,0,109.4,13.66,-1.42,14.2
"2010-12-22 00:38:30",443898,4.491,53.7,5.557,1.089,3.197,99.42482,-2.166,-1.122,75.33,0,109.4,13.66,-1.42,15.7
"2010-12-22 00:39:00",443899,4.008,52.35,6.525,1.186,2.253,99.42595,-2.163,-1.154,75.37,0,109.4,13.66,-1.42,14.3
"2010-12-22 00:39:30",443900,3.928,54.56,5.915,1.227,2.12,99.42652,-2.161,-1.132,75.38,0,109.4,13.66,-1.42,16.6
"2010-12-22 00:40:00",443901,3.475,55.04,6.693,1.208,1.196,99.42455,-2.166,-1.097,75.43,0,109.4,13.66,-1.42,17.0
"2010-12-22 00:40:30",443902,4.337,60.87,5.97,1.167,2.575,99.42454,-2.166,-1.087,75.45,0,109.4,13.66,-1.42,22.9
"2010-12-22 00:41:00",443903,4.136,59.89,6.327,1.221,2.182,99.42114,-2.175,-1.084,75.51,0,109.4,13.66,-1.43,21.9
"2010-12-22 00:41:30",443904,4.102,62.07,6.052,1.178,2.642,99.42086,-2.176,-1.064,75.55,0,109.4,13.66,-1.43,24.1
"2010-12-22 00:42:00",443905,4.236,61.85,6.06,1.152,2.684,99.42001,-2.178,-1.1,75.49,0,109.4,13.66,-1.43,23.8
"2010-12-22 00:42:30",443906,3.914,58.69,6.274,1.196,2.004,99.41804,-2.183,-1.108,75.51,0,109.4,13.66,-1.44,20.7
"2010-12-22 00:43:00",443907,4.507,60.98,5.475,1.14,3.074,99.41887,-2.181,-1.089,75.54,0,109.4,13.66,-1.44,23.0
"2010-12-22 00:43:30",443908,4.669,61.62,5.527,1.096,2.978,99.41887,-2.181,-1.099,75.5,0,109.4,13.66,-1.44,23.6
"2010-12-22 00:44:00",443909,4.578,59.89,5.694,1.105,2.795,99.41859,-2.181,-1.057,75.58,0,109.4,13.66,-1.44,21.9
"2010-12-22 00:44:30",443910,4.494,59.46,5.605,1.094,2.772,99.41689,-2.186,-1.169,75.5,0,109.4,13.66,-1.44,21.5
"2010-12-22 00:45:00",443911,3.999,58,5.894,1.149,2.581,99.41661,-2.187,-1.06,75.58,0,109.4,13.66,-1.44,20.0
"2010-12-22 00:45:30",443912,3.034,53.82,4.525,1.008,0.587,99.41943,-2.179,-1.261,75.36,0,109.4,13.66,-1.43,15.8
"2010-12-22 00:46:00",443913,3.474,57.93,6.327,1.174,1.879,99.41886,-2.181,-1.085,75.47,0,109.4,13.66,-1.44,19.9
"2010-12-22 00:46:30",443914,3.912,61.15,5.682,1.149,2.935,99.41746,-2.184,-1.066,75.51,0,109.4,13.65,-1.44,23.2
"2010-12-22 00:47:00",443915,3.663,59.16,6.332,1.194,2.273,99.41858,-2.181,-1.09,75.5,0,109.4,13.65,-1.44,21.2
"2010-12-22 00:47:30",443916,3.891,59.91,6.129,1.157,2.418,99.4183,-2.182,-1.169,75.42,0,109.4,13.65,-1.44,21.9
"2010-12-22 00:48:00",443917,3.528,58.7,6.32,1.151,2.151,99.41858,-2.181,-1.042,75.55,0,109.4,13.65,-1.44,20.7
"2010-12-22 00:48:30",443918,3.569,56.6,6.095,1.192,1.452,99.41971,-2.179,-1.188,75.48,0,109.4,13.65,-1.43,18.6
"2010-12-22 00:49:00",443919,3.63,56.02,6.544,1.204,1.953,99.41999,-2.178,-1.139,75.72,0,109.4,13.65,-1.43,18.0
"2010-12-22 00:49:30",443920,4.145,56.48,5.581,1.091,2.924,99.42083,-2.176,-1.088,75.76,0,109.4,13.65,-1.43,18.5
"2010-12-22 00:50:00",443921,4.086,55.07,5.434,1.119,2.722,99.42168,-2.174,-1.069,75.77,0,109.4,13.65,-1.43,17.1
"2010-12-22 00:50:30",443922,4.056,53.26,5.47,1.128,2.581,99.42027,-2.177,-1.095,75.85,0,109.4,13.65,-1.43,15.3
"2010-12-22 00:51:00",443923,3.906,53.16,5.344,1.139,2.531,99.42225,-2.172,-1.157,75.91,0,109.4,13.65,-1.43,15.2
"2010-12-22 00:51:30",443924,2.915,48.14,6.315,1.086,0.641,99.42113,-2.175,-1.178,75.91,0,109.4,13.66,-1.43,10.1
"2010-12-22 00:52:00",443925,2.818,48.11,5.98,1.063,0.588,99.42112,-2.175,-1.186,75.94,0,109.4,13.66,-1.43,10.1
"2010-12-22 00:52:30",443926,3.921,54.72,5.255,1.164,2.405,99.42112,-2.175,-1.067,76.09,0,109.4,13.66,-1.43,16.7
"2010-12-22 00:53:00",443927,3.987,54.08,5.584,1.151,2.817,99.4214,-2.174,-1.089,76.09,0,109.4,13.66,-1.43,16.1
"2010-12-22 00:53:30",443928,3.707,50.96,6.187,1.183,1.807,99.42112,-2.175,-1.123,76.02,0,109.4,13.66,-1.43,13.0
"2010-12-22 00:54:00",443929,3.372,49.9,6.373,1.198,1.389,99.42197,-2.173,-1.171,75.9,0,109.4,13.66,-1.43,11.9
"2010-12-22 00:54:30",443930,3.48,49.87,6.428,1.157,1.609,99.42168,-2.174,-1.102,75.87,0,109.4,13.66,-1.43,11.9
"2010-12-22 00:55:00",443931,3.746,50.16,5.985,1.221,1.669,99.42225,-2.172,-1.201,75.74,0,109.4,13.66,-1.43,12.2
"2010-12-22 00:55:30",443932,3.794,52.36,5.636,1.186,2.465,99.42225,-2.172,-1.044,75.94,0,109.4,13.66,-1.43,14.4
"2010-12-22 00:56:00",443933,4.192,52.78,5.537,0.994,2.732,99.42197,-2.173,-1.074,75.99,0,109.4,13.66,-1.43,14.8
"2010-12-22 00:56:30",443934,4.002,50.93,6.064,1.122,2.291,99.42225,-2.172,-1.116,76,0,109.4,13.66,-1.43,12.9
"2010-12-22 00:57:00",443935,2.81,44.34,4.573,0.904,0.688,99.42197,-2.173,-1.119,75.99,0,109.4,13.66,-1.43,6.3
"2010-12-22 00:57:30",443936,3.82,46.93,5.972,1.143,2.394,99.42197,-2.173,-1.114,76.02,0,109.4,13.66,-1.43,8.9
"2010-12-22 00:58:00",443937,3.701,45.66,6.3,1.121,2.622,99.42225,-2.172,-1.133,75.95,0,109.4,13.66,-1.43,7.7
"2010-12-22 00:58:30",443938,3.571,44.98,5.764,1.195,2.531,99.42197,-2.173,-1.051,75.98,0,109.4,13.66,-1.43,7.0
"2010-12-22 00:59:00",443939,4.027,45.04,5.565,1.077,2.623,99.42197,-2.173,-1.112,75.89,0,109.5,13.66,-1.43,7.0
"2010-12-22 00:59:30",443940,2.912,38.63,5.486,1.065,0.803,99.42197,-2.173,-1.244,75.78,0,109.4,13.66,-1.43,0.6
"2010-12-22 01:00:00",443941,2.989,38.02,6.239,1.116,1.663,99.42197,-2.173,-1.08,75.95,0,109.4,13.66,-1.43,0.0
"2010-12-22 01:00:30",443942,3.423,39.89,6.746,1.234,2.025,99.42197,-2.173,-1.125,75.93,0,109.4,13.66,-1.43,1.9
"2010-12-22 01:01:00",443943,2.786,36.36,6.157,1.11,1.155,99.42197,-2.173,-1.125,75.92,0,109.4,13.66,-1.43,358.4
"2010-12-22 01:01:30",443944,3.298,37.82,6.259,1.216,1.958,99.42197,-2.173,-1.069,76.02,0,109.4,13.66,-1.43,359.8
"2010-12-22 01:02:00",443945,3.863,40.77,5.566,1.1,2.597,99.42197,-2.173,-1.061,76.07,0,109.4,13.67,-1.43,2.8
"2010-12-22 01:02:30",443946,2.632,34.23,4.496,0.933,0.077,99.42197,-2.173,-1.179,75.98,0,109.4,13.67,-1.43,356.2
"2010-12-22 01:03:00",443947,3.918,41.12,5.8,1.111,2.336,99.42197,-2.173,-1.052,76.08,0,109.4,13.66,-1.43,3.1
"2010-12-22 01:03:30",443948,4.418,43.5,5.263,1.075,2.733,99.42197,-2.173,-1.086,76,0,109.4,13.66,-1.43,5.5
"2010-12-22 01:04:00",443949,3.917,41.22,6.134,1.216,2.181,99.42197,-2.173,-1.042,76,0,109.4,13.66,-1.43,3.2
"2010-12-22 01:04:30",443950,4.595,44.12,5.664,1.105,2.498,99.42197,-2.173,-1.055,75.98,0,109.4,13.66,-1.43,6.1
"2010-12-22 01:05:00",443951,4.647,43.51,6.008,1.096,2.129,99.42197,-2.173,-1.116,75.89,0,109.4,13.66,-1.43,5.5
"2010-12-22 01:05:30",443952,4.46,42.93,6.151,1.167,2.168,99.42225,-2.172,-1.134,75.78,0,109.4,13.66,-1.43,4.9
"2010-12-22 01:06:00",443953,4.928,44.41,5.682,1.087,2.872,99.42367,-2.169,-1.084,75.7,0,109.4,13.66,-1.42,6.4
"2010-12-22 01:06:30",443954,4.875,45.9,5.78,1.155,2.915,99.4231,-2.17,-1.048,75.65,0,109.4,13.66,-1.43,7.9
"2010-12-22 01:07:00",443955,5.195,46.91,5.286,1.048,2.953,99.42394,-2.168,-1.046,75.6,0,109.4,13.66,-1.42,8.9
"2010-12-22 01:07:30",443956,5.103,47.55,5.275,1.075,2.572,99.42394,-2.168,-1.044,75.59,0,109.4,13.66,-1.42,9.5
"2010-12-22 01:08:00",443957,4.949,46.2,5.955,1.142,1.863,99.42394,-2.168,-1.173,75.42,0,109.4,13.66,-1.42,8.2
"2010-12-22 01:08:30",443958,4.794,48.68,5.851,1.169,2.595,99.42537,-2.164,-1.058,75.37,0,109.4,13.66,-1.42,10.7
"2010-12-22 01:09:00",443959,4.873,50.78,5.438,1.15,2.986,99.42678,-2.161,-1.035,75.28,0,109.4,13.66,-1.42,12.8
"2010-12-22 01:09:30",443960,4.801,51.77,5.761,1.117,2.945,99.4282,-2.157,-1.042,75.23,0,109.4,13.66,-1.41,13.8
"2010-12-22 01:10:00",443961,4.945,53.78,5.513,0.998,2.877,99.43386,-2.143,-1.042,75.15,0,109.4,13.66,-1.40,15.8
"2010-12-22 01:10:30",443962,4.649,54.35,5.88,1.117,2.612,99.43896,-2.13,-1.051,74.99,0,109.4,13.66,-1.39,16.3
"2010-12-22 01:11:00",443963,3.918,51.47,6.338,1.168,1.429,99.44917,-2.104,-1.192,74.74,0,109.4,13.66,-1.36,13.5
"2010-12-22 01:11:30",443964,4.727,56.05,5.649,1.087,3.153,99.45541,-2.088,-1.069,74.87,0,109.4,13.66,-1.34,18.0
"2010-12-22 01:12:00",443965,4.153,52.38,6.383,1.198,2.429,99.45596,-2.086,-1.041,74.88,0,109.4,13.66,-1.34,14.4
"2010-12-22 01:12:30",443966,4.724,54.49,5.451,0.993,3.11,99.45596,-2.086,-1.017,74.83,0,109.4,13.66,-1.34,16.5
"2010-12-22 01:13:00",443967,4.24,53.12,6.103,1.199,2.371,99.45596,-2.086,-1.018,74.73,0,109.4,13.67,-1.34,15.1
"2010-12-22 01:13:30",443968,3.826,50.19,6.058,1.196,1.033,99.45596,-2.086,-1.119,74.59,0,109.4,13.66,-1.34,12.2
"2010-12-22 01:14:00",443969,3.808,50.49,6.121,1.145,1.361,99.45596,-2.086,-1.022,74.64,0,109.4,13.66,-1.34,12.5
"2010-12-22 01:14:30",443970,4.593,54.46,5.813,1.099,2.827,99.45596,-2.086,-1,74.57,0,109.4,13.66,-1.34,16.5
"2010-12-22 01:15:00",443971,4.859,55.79,5.622,1.032,3.294,99.45596,-2.086,-1.008,74.49,0,109.4,13.66,-1.34,17.8
"2010-12-22 01:15:30",443972,4.728,57.03,5.299,1.065,2.932,99.45596,-2.086,-0.992,74.51,0,109.4,13.66,-1.34,19.0
"2010-12-22 01:16:00",443973,4.36,56.37,6.048,1.18,2.699,99.45596,-2.086,-0.997,74.47,0,109.4,13.66,-1.34,18.4
"2010-12-22 01:16:30",443974,3.397,52.29,5.299,0.909,1.002,99.45596,-2.086,-1.091,74.31,0,109.4,13.67,-1.34,14.3
"2010-12-22 01:17:00",443975,4.698,58.27,5.754,1.078,2.574,99.45596,-2.086,-1.015,74.32,0,109.4,13.66,-1.34,20.3
"2010-12-22 01:17:30",443976,4.747,58.74,5.255,1.039,3.538,99.45596,-2.086,-1.006,74.31,0,109.4,13.66,-1.34,20.7
"2010-12-22 01:18:00",443977,4.482,57.57,5.838,1.133,2.626,99.45596,-2.086,-1.033,74.19,0,109.4,13.66,-1.34,19.6
"2010-12-22 01:18:30",443978,4.883,60.72,4.768,0.974,3.484,99.45596,-2.086,-1.051,73.99,0,109.5,13.66,-1.34,22.7
"2010-12-22 01:19:00",443979,4.276,57.17,6.163,1.19,2.118,99.45596,-2.086,-1.046,74.02,0,109.4,13.66,-1.34,19.2
"2010-12-22 01:19:30",443980,4.025,54.65,5.881,1.202,1.653,99.45596,-2.086,-1.072,73.99,0,109.4,13.66,-1.34,16.7
"2010-12-22 01:20:00",443981,4.618,58.3,5.607,1.183,3.034,99.45596,-2.086,-1.04,73.93,0,109.4,13.66,-1.34,20.3
"2010-12-22 01:20:30",443982,4.761,58.96,4.796,1.082,4.055,99.45596,-2.086,-0.946,73.97,0,109.4,13.66,-1.34,21.0
"2010-12-22 01:21:00",443983,4.761,57.85,5.544,1.095,3.33,99.45596,-2.086,-0.992,73.91,0,109.4,13.66,-1.34,19.8
"2010-12-22 01:21:30",443984,4.719,58.25,5.482,1.11,3.086,99.45596,-2.086,-0.987,73.9,0,109.4,13.66,-1.34,20.2
"2010-12-22 01:22:00",443985,3.631,51.75,4.597,0.978,0.454,99.45596,-2.086,-1.168,73.7,0,109.4,13.66,-1.34,13.8
"2010-12-22 01:22:30",443986,4.639,58.35,6.039,1.18,2.85,99.45596,-2.086,-0.984,73.87,0,109.4,13.66,-1.34,20.3
"2010-12-22 01:23:00",443987,4.716,59.12,5.606,1.109,3.296,99.45596,-2.086,-1.029,73.8,0,109.4,13.66,-1.34,21.1
"2010-12-22 01:23:30",443988,4.815,58.29,5.309,1.106,3.817,99.45596,-2.086,-0.916,74,0,109.4,13.66,-1.34,20.3
"2010-12-22 01:24:00",443989,4.718,56.99,5.104,1.103,3.372,99.45596,-2.086,-0.983,73.96,0,109.4,13.66,-1.34,19.0
"2010-12-22 01:24:30",443990,4.428,52.26,6.088,1.192,1.803,99.45596,-2.086,-1.094,73.87,0,109.4,13.66,-1.34,14.3
"2010-12-22 01:25:00",443991,4.011,50.49,6.004,1.205,0.921,99.45596,-2.086,-1.063,73.92,0,109.4,13.66,-1.34,12.5
"2010-12-22 01:25:30",443992,4.483,52.37,6.088,1.239,2.313,99.45596,-2.086,-1.004,73.98,0,109.4,13.66,-1.34,14.4
"2010-12-22 01:26:00",443993,5.159,56.69,5.029,0.987,3.779,99.45596,-2.086,-0.968,74.03,0,109.4,13.66,-1.34,18.7
"2010-12-22 01:26:30",443994,5.066,55.42,5.572,1.075,3.373,99.45596,-2.086,-1.016,73.95,0,109.4,13.66,-1.34,17.4
"2010-12-22 01:27:00",443995,5.031,55.68,5.399,1.14,3.318,99.45596,-2.086,-0.975,74.04,0,109.4,13.66,-1.34,17.7
"2010-12-22 01:27:30",443996,4.728,53.67,6.035,1.117,2.603,99.45596,-2.086,-1.004,74.09,0,109.4,13.66,-1.34,15.7
"2010-12-22 01:28:00",443997,4.598,54.66,6.419,1.227,1.511,99.45596,-2.086,-0.994,74.15,0,109.4,13.66,-1.34,16.7
"2010-12-22 01:28:30",443998,5.065,56.99,5.788,1.161,2.883,99.45596,-2.086,-0.991,74.18,0,109.4,13.66,-1.34,19.0
"2010-12-22 01:29:00",443999,5.386,57.05,4.645,0.979,3.337,99.45596,-2.086,-0.992,74.22,0,109.4,13.66,-1.34,19.0
"2010-12-22 01:29:30",444000,4.963,52.51,6.291,1.137,2.958,99.45596,-2.086,-0.989,74.21,0,109.4,13.66,-1.34,14.5
"2010-12-22 01:30:00",444001,5.116,52.99,5.688,1.115,3.231,99.45596,-2.086,-1.021,74.22,0,109.4,13.66,-1.34,15.0
"2010-12-22 01:30:30",444002,5.047,51.96,6.173,1.104,2.596,99.45596,-2.086,-1.002,74.21,0,109.4,13.66,-1.34,14.0
"2010-12-22 01:31:00",444003,5.014,53.68,5.641,1.163,3.059,99.45596,-2.086,-0.996,74.23,0,109.4,13.66,-1.34,15.7
"2010-12-22 01:31:30",444004,5.14,55.96,5.954,1.037,3.189,99.45596,-2.086,-0.994,74.21,0,109.4,13.66,-1.34,18.0
"2010-12-22 01:32:00",444005,5.248,59.01,4.593,0.91,3.604,99.45596,-2.086,-1.014,74.17,0,109.4,13.66,-1.34,21.0
"2010-12-22 01:32:30",444006,4.647,58.59,5.945,1.114,3.09,99.45596,-2.086,-1.057,74.2,0,109.4,13.66,-1.34,20.6
"2010-12-22 01:33:00",444007,3.665,53.65,5.117,1,1.08,99.45596,-2.086,-1.123,74.18,0,109.4,13.66,-1.34,15.7
"2010-12-22 01:33:30",444008,4.512,58.41,6.076,1.222,2.377,99.45596,-2.086,-1.006,74.34,0,109.4,13.66,-1.34,20.4
"2010-12-22 01:34:00",444009,4.663,59.78,5.434,1.133,2.965,99.45541,-2.088,-0.991,74.32,0,109.4,13.66,-1.34,21.8
"2010-12-22 01:34:30",444010,5.167,60.91,4.302,0.918,3.742,99.45596,-2.086,-0.98,74.38,0,109.4,13.66,-1.34,22.9
"2010-12-22 01:35:00",444011,4.922,57.05,5.936,1.102,2.695,99.45568,-2.087,-1.074,74.31,0,109.4,13.66,-1.34,19.0
"2010-12-22 01:35:30",444012,4.642,56.56,6.113,1.148,2.942,99.45483,-2.089,-1.004,74.39,0,109.4,13.66,-1.34,18.6
"2010-12-22 01:36:00",444013,4.68,56.86,5.776,1.146,2.731,99.45058,-2.1,-1.086,74.36,0,109.4,13.66,-1.36,18.9
"2010-12-22 01:36:30",444014,5.089,61.14,4.762,0.907,3.879,99.44803,-2.106,-0.97,74.46,0,109.4,13.66,-1.36,23.1
"2010-12-22 01:37:00",444015,4.472,59.11,5.715,1.189,2.588,99.4452,-2.114,-1.057,74.41,0,109.4,13.65,-1.37,21.1
"2010-12-22 01:37:30",444016,4.534,59.11,5.665,1.125,2.808,99.44038,-2.126,-1.014,74.46,0,109.4,13.66,-1.38,21.1
"2010-12-22 01:38:00",444017,4.246,58.67,5.954,1.153,2.741,99.44151,-2.123,-1.04,74.47,0,109.4,13.65,-1.38,20.7
"2010-12-22 01:38:30",444018,4.418,59.47,5.611,1.1,2.823,99.43953,-2.128,-1.084,74.42,0,109.4,13.66,-1.38,21.5
"2010-12-22 01:39:00",444019,3.323,54.31,5.751,1.075,0.747,99.43981,-2.127,-1.123,74.4,0,109.4,13.65,-1.38,16.3
"2010-12-22 01:39:30",444020,4.309,57.96,5.955,1.111,2.307,99.43472,-2.14,-1.043,74.53,0,109.4,13.65,-1.40,20.0
"2010-12-22 01:40:00",444021,4.552,59.82,5.28,1.089,3.178,99.43358,-2.143,-0.98,74.66,0,109.4,13.66,-1.40,21.8
"2010-12-22 01:40:30",444022,4.417,59.61,5.29,1.109,2.723,99.42905,-2.155,-1.015,74.59,0,109.4,13.66,-1.41,21.6
"2010-12-22 01:41:00",444023,4.05,57.82,6.455,1.178,2.121,99.42537,-2.164,-1.039,74.6,0,109.4,13.66,-1.42,19.8
"2010-12-22 01:41:30",444024,3.518,56.08,5.898,1.076,1.415,99.42225,-2.172,-1.097,74.58,0,109.4,13.66,-1.43,18.1
"2010-12-22 01:42:00",444025,3.877,58.24,6.056,1.192,1.349,99.42197,-2.173,-1.141,74.64,0,109.4,13.66,-1.43,20.2
"2010-12-22 01:42:30",444026,4.218,63.12,5.401,1.163,2.489,99.42197,-2.173,-1.039,74.77,0,109.4,13.66,-1.43,25.1
"2010-12-22 01:43:00",444027,4.726,66.1,3.25,0.673,3.616,99.42197,-2.173,-1.033,74.86,0,109.4,13.66,-1.43,28.1
"2010-12-22 01:43:30",444028,3.666,60.35,6.384,1.233,2.078,99.42197,-2.173,-1.058,74.92,0,109.4,13.66,-1.43,22.3
"2010-12-22 01:44:00",444029,3.443,59.06,6.374,1.237,1.707,99.42197,-2.173,-1.171,74.89,0,109.4,13.66,-1.43,21.1
"2010-12-22 01:44:30",444030,3.062,55.81,5.297,1.112,1.32,99.42197,-2.173,-1.152,74.98,0,109.4,13.66,-1.43,17.8
"2010-12-22 01:45:00",444031,3.282,56.58,6.407,1.193,1.3,99.42197,-2.173,-1.203,75.02,0,109.4,13.66,-1.43,18.6
"2010-12-22 01:45:30",444032,3.437,60.05,6.347,1.183,2.476,99.41914,-2.18,-1.083,75.23,0,109.4,13.67,-1.44,22.0
"2010-12-22 01:46:00",444033,3.427,68.51,6.138,1.109,2.58,99.40609,-2.213,-1.06,75.27,0,109.4,13.67,-1.47,30.5
"2010-12-22 01:46:30",444034,2.085,66.58,5.995,1.042,0.832,99.40099,-2.226,-1.183,75.04,0,109.4,13.67,-1.48,28.6